Theta_e
352 355 358 360 360 360 360 360 359 359 359 358 358 357 356 356 354 355 355 355 354 355 355 354 354 354 354 353 353 353 353 352 352 352 352 351 350 349 348 347 346 345 345 346 346 345 344 343 343 344 346 347 348 349 350 350 350 350 350 350 349 349 349 348 348 349 350 348 349 349 348 348 349 349 349 347 347 348 347 347 347 343 344 345 347
351 356 358 359 359 359 359 359 359 358 358 358 357 357 356 355 354 354 355 355 355 354 354 354 354 354 354 353 353 353 353 352 351 351 350 350 347 347 348 347 347 346 346 346 345 345 345 344 343 344 346 347 348 348 349 349 349 349 350 350 349 351 350 349 349 349 349 348 348 347 347 347 347 347 348 347 346 346 346 346 346 342 342 347 347
354 356 357 359 359 359 359 358 358 358 358 358 357 356 356 355 355 355 355 355 355 354 354 354 354 353 353 353 353 353 352 352 351 350 349 348 348 348 348 347 346 346 346 346 346 346 345 344 344 344 345 347 347 348 348 349 349 349 349 350 350 349 349 349 350 349 349 348 348 348 347 347 346 345 345 345 345 345 345 345 345 345 341 345 346
353 355 357 359 359 358 358 358 358 358 357 357 357 356 356 355 355 355 355 355 354 354 354 354 354 353 353 353 353 352 351 351 350 350 350 347 347 347 347 346 347 347 346 346 345 345 345 344 344 344 344 345 347 347 347 347 348 347 348 349 350 350 348 348 349 349 349 347 347 345 344 341 343 346 346 346 345 344 343 344 344 345 345 345 345
353 356 356 356 356 358 357 357 357 357 357 357 356 356 355 355 355 355 355 354 354 354 354 354 354 354 353 353 353 352 351 351 351 350 349 348 348 348 347 347 347 346 346 345 345 345 345 344 344 344 344 344 346 346 346 346 345 345 346 348 348 349 348 349 349 348 348 347 347 345 340 340 341 344 344 344 344 343 343 343 342 343 343 345 345
353 355 355 355 356 357 357 357 357 357 357 357 356 356 356 355 355 355 355 354 354 354 353 353 353 354 353 353 353 351 351 351 352 350 348 349 349 348 347 347 347 346 345 346 346 348 348 347 344 344 345 345 345 345 345 345 344 344 344 345 345 346 348 348 348 349 348 347 345 341 341 341 341 342 345 345 344 343 341 341 341 341 342 343 344
352 353 354 355 356 357 357 357 357 357 357 357 356 356 356 355 355 355 355 354 354 353 353 353 353 353 353 353 352 351 351 351 352 350 349 350 350 349 347 346 346 347 347 347 349 349 348 348 347 347 346 346 344 345 344 344 344 344 344 344 343 343 343 344 344 346 347 346 339 339 339 340 341 342 345 344 344 343 343 342 341 340 340 341 342
351 352 354 355 356 358 357 356 356 357 357 357 356 356 356 355 355 354 354 354 354 353 353 353 353 352 352 352 352 351 351 352 352 350 350 350 350 349 347 346 346 347 347 348 348 348 348 347 347 346 345 346 345 343 343 343 343 343 343 344 344 344 345 345 345 346 347 343 339 338 338 339 340 341 344 344 343 342 342 341 340 340 340 340 340
349 353 355 355 356 358 356 355 356 356 357 357 356 356 355 355 354 354 354 354 353 353 353 352 352 352 352 352 352 352 352 351 351 352 352 351 350 349 348 348 347 348 348 348 348 349 348 347 347 347 346 346 343 342 341 342 342 343 343 343 344 344 345 344 345 345 342 336 334 334 335 337 337 338 343 344 343 342 341 341 341 340 340 340 339
352 353 354 354 355 357 356 355 355 356 356 356 356 355 355 355 354 354 353 353 353 353 353 352 352 352 352 351 351 351 351 351 351 351 351 351 350 349 349 348 348 348 348 348 348 348 347 347 347 347 347 345 344 342 340 341 342 343 342 342 343 344 343 344 346 341 334 334 335 335 336 340 335 336 340 343 343 342 340 341 340 339 338 339 338
350 352 354 354 355 355 355 355 356 356 356 356 356 355 355 354 354 353 353 353 352 352 353 352 352 352 352 351 351 351 351 351 351 350 351 351 351 349 348 349 349 349 349 349 348 348 348 348 348 347 346 344 344 343 343 341 342 343 344 343 342 344 344 346 343 334 334 333 333 334 338 340 333 334 339 340 341 340 338 338 338 339 339 339 339
350 352 353 354 357 355 355 355 356 356 356 356 355 355 354 354 353 353 353 353 352 351 351 352 352 352 352 351 351 351 351 350 349 349 351 351 350 349 349 349 350 350 349 348 348 348 348 348 347 346 346 345 344 344 345 345 343 344 344 344 344 344 344 346 339 334 333 332 333 332 332 333 333 335 339 339 340 337 337 337 336 336 337 336 337
351 352 353 353 354 355 354 355 355 356 356 355 355 354 354 354 353 353 353 353 352 352 351 352 352 352 352 350 351 352 351 351 350 350 351 352 353 352 352 351 350 349 348 348 348 348 347 347 347 346 346 346 346 346 345 345 345 344 344 345 345 345 345 345 337 334 333 333 333 333 332 334 336 339 339 339 339 338 337 336 338 339 338 337 337
349 351 351 352 354 357 354 355 354 355 354 354 353 353 354 354 353 353 352 352 352 352 352 352 352 352 352 352 353 353 352 351 350 349 351 352 352 352 352 351 350 349 348 348 347 346 346 347 346 347 346 346 347 347 346 346 345 345 345 345 344 344 346 342 340 334 333 332 333 333 334 335 335 339 339 339 339 338 338 337 337 336 336 336 337
348 349 351 353 353 354 357 354 354 353 353 352 353 353 352 352 352 352 352 352 352 352 352 352 352 353 353 353 353 353 352 351 350 349 350 351 351 352 351 351 350 349 348 347 347 347 346 347 346 346 346 346 346 346 346 345 347 344 345 345 345 345 347 341 334 332 332 332 332 332 332 333 340 339 338 338 338 337 336 336 335 337 336 338 337
348 350 351 351 351 353 353 356 353 352 352 352 352 352 352 352 352 353 352 352 352 352 352 352 353 353 353 352 351 353 352 351 351 351 351 351 351 351 351 350 349 348 347 347 347 346 346 346 346 346 346 346 346 346 345 346 346 345 345 344 346 346 348 345 331 331 331 331 332 332 331 333 338 338 337 338 337 337 336 336 337 336 336 338 337
348 349 349 349 350 350 351 352 351 352 351 352 352 352 352 352 352 352 352 352 352 352 352 352 352 352 352 351 351 352 352 351 351 352 351 351 350 350 350 349 348 347 347 347 346 346 346 347 346 346 346 346 346 345 346 346 347 346 346 345 346 347 350 342 330 330 331 333 333 331 331 333 336 337 338 339 338 337 337 336 336 335 337 336 336
346 347 347 348 348 348 349 349 350 349 349 351 352 352 351 351 351 352 352 352 352 352 351 351 351 351 351 350 350 351 351 351 351 351 351 351 350 350 350 349 348 347 347 346 346 346 346 346 346 346 346 346 345 345 346 346 346 345 346 346 346 347 349 339 333 334 334 335 331 332 331 337 337 338 339 339 338 338 337 336 336 335 336 336 338
343 344 345 346 346 346 347 348 348 347 347 348 349 351 351 351 351 351 352 351 351 351 351 350 351 350 350 349 349 350 351 351 350 350 350 349 349 349 349 349 347 347 346 346 345 345 346 347 347 346 346 345 346 346 344 346 345 346 346 346 347 348 345 337 333 332 333 331 331 331 333 338 338 338 337 337 337 336 336 336 335 335 334 337 337
341 341 342 342 344 345 345 345 346 346 346 347 348 349 352 351 351 352 352 351 351 351 350 350 350 350 349 349 349 348 349 349 350 349 350 349 349 348 349 348 347 346 345 345 344 345 346 346 346 346 346 346 345 345 345 345 346 346 346 346 347 344 334 332 332 332 332 333 332 329 335 336 336 336 336 336 335 336 335 335 336 335 335 334 336
339 337 338 341 342 342 342 341 343 344 345 346 348 348 350 352 350 352 351 351 350 351 351 350 350 350 348 349 347 345 345 345 346 346 349 347 348 348 348 347 346 346 345 344 344 344 344 345 345 346 346 345 345 345 344 345 344 345 346 346 345 336 335 332 333 334 333 333 334 332 336 336 337 337 336 336 336 336 335 334 334 334 334 333 336
334 335 338 339 339 339 340 339 338 343 345 346 347 348 349 350 348 349 349 349 350 350 349 348 348 346 348 346 344 346 343 343 344 348 345 347 347 347 347 346 346 345 344 344 343 342 343 343 345 345 346 345 345 336 339 343 344 344 346 343 337 337 335 333 332 332 332 332 334 335 337 337 337 337 336 336 335 335 335 334 334 334 334 334 333
333 334 336 338 338 338 338 338 339 341 344 344 346 347 346 346 346 347 348 349 350 349 347 347 345 345 345 344 344 342 342 343 343 346 345 347 346 347 346 346 345 345 344 343 343 342 343 342 343 344 345 345 340 336 336 337 336 345 340 336 335 337 334 333 332 331 331 333 331 337 337 337 336 336 336 336 335 335 334 334 334 334 333 333 333
333 334 335 338 338 337 338 337 337 339 342 342 344 345 345 345 345 346 346 347 347 347 346 345 345 344 344 343 342 343 343 342 348 348 346 345 345 346 346 345 344 344 344 343 342 342 342 342 341 343 342 343 338 338 339 338 336 336 334 332 331 332 334 333 332 331 332 334 333 340 337 337 337 335 336 336 335 335 335 335 334 334 333 332 332
334 335 336 336 337 337 337 337 338 339 341 342 343 342 343 344 344 345 345 345 344 344 343 342 343 343 343 343 343 343 343 342 342 341 340 342 341 340 341 340 339 336 342 334 333 338 336 335 335 338 331 333 335 335 338 337 338 334 331 332 332 332 334 333 332 331 331 331 335 341 340 338 337 337 337 336 335 335 334 334 333 332 332 332 332
336 334 334 336 337 338 338 337 338 340 341 341 341 343 343 342 343 344 344 342 341 340 339 339 340 343 343 343 341 343 341 341 340 340 340 339 338 337 337 337 336 335 338 333 332 331 330 330 330 330 329 332 332 333 337 339 336 331 331 333 334 334 336 334 332 332 331 333 336 339 339 337 337 336 336 335 335 335 334 334 332 331 331 331 331
335 334 335 336 337 339 339 339 339 340 341 342 341 341 339 340 341 341 341 339 339 339 338 339 341 341 343 344 340 340 339 340 340 340 339 338 337 337 337 337 336 335 334 333 331 331 329 329 329 328 328 330 331 331 336 336 334 332 331 335 335 335 336 334 333 332 332 333 339 339 339 337 336 336 336 336 335 335 334 334 333 332 332 332 332
335 335 336 336 338 339 339 339 339 340 340 341 340 339 338 339 340 343 340 340 339 338 337 339 342 343 343 343 344 340 339 339 339 339 339 339 338 338 337 336 336 335 332 334 331 330 328 329 330 329 331 331 331 330 330 332 332 332 332 333 335 334 335 334 333 333 333 334 337 338 338 338 337 336 336 336 335 334 334 334 334 333 332 332 331
335 334 335 337 338 339 339 339 339 340 340 339 338 338 337 338 338 337 337 343 337 338 339 341 341 343 344 343 343 340 339 339 339 339 340 338 338 338 337 336 336 334 331 332 331 330 329 329 330 330 331 331 330 330 330 330 331 331 331 332 334 335 336 335 334 334 334 335 337 337 337 337 338 337 336 335 335 335 335 335 334 334 333 333 331
335 335 335 336 339 339 338 338 339 340 339 338 337 336 336 336 335 335 337 341 336 337 339 340 340 341 339 340 342 339 337 337 338 338 338 337 337 337 337 336 335 332 330 331 332 331 329 330 333 332 332 331 330 329 328 329 330 331 333 334 334 334 336 336 335 335 335 336 336 336 337 338 339 338 337 336 336 336 335 334 334 334 332 332 332
336 334 335 336 337 338 338 339 340 340 338 336 335 335 336 336 336 336 338 337 337 338 339 339 338 337 337 338 337 340 339 338 336 337 337 336 335 335 334 334 335 332 332 332 334 334 332 333 332 331 333 332 329 329 329 331 332 335 335 335 334 334 336 337 337 336 336 335 335 334 335 337 338 338 339 338 336 335 335 334 333 332 333 333 333
335 335 335 336 336 337 338 339 339 338 336 335 337 336 336 337 337 337 337 337 340 340 339 338 338 336 337 336 337 337 339 338 338 337 335 334 334 334 333 332 333 335 336 335 336 336 334 335 340 340 338 333 331 331 331 331 332 333 334 334 335 334 335 337 337 336 336 335 334 334 334 336 340 339 337 338 337 335 334 335 334 335 334 334 333
336 337 336 336 336 336 338 338 337 336 336 336 336 337 337 337 336 337 340 341 341 340 338 337 335 336 335 336 338 338 337 337 338 336 335 334 334 333 334 335 333 333 335 338 337 336 336 336 337 339 334 333 333 332 334 332 331 331 333 334 334 334 336 337 336 335 335 334 333 333 334 335 335 338 337 336 338 337 335 335 335 335 334 334 334
335 335 337 335 336 337 338 337 336 336 338 338 336 337 337 337 338 338 341 341 340 339 338 337 337 336 335 337 338 337 337 337 337 335 334 333 334 333 334 335 336 336 335 334 337 335 334 334 334 334 333 332 332 331 331 331 333 334 334 335 335 335 335 335 335 335 334 333 332 333 333 333 333 334 335 336 338 338 338 336 335 335 334 334 334
335 335 336 337 337 337 337 335 336 337 338 337 337 336 337 337 338 335 336 339 338 337 337 338 337 336 335 337 339 338 337 337 337 334 333 334 334 333 334 334 338 338 336 337 335 335 334 334 334 330 330 331 333 332 329 330 332 333 334 334 334 334 334 334 335 334 332 331 331 332 333 332 331 333 335 334 339 338 338 337 335 335 335 336 334
334 334 335 337 336 336 337 337 337 336 337 336 336 337 339 337 335 332 335 336 337 336 336 337 337 338 337 338 339 338 337 337 338 337 334 334 334 333 334 336 337 336 338 339 337 335 334 337 336 332 328 330 332 331 329 329 330 332 333 333 333 333 332 333 333 333 332 331 331 331 331 331 332 333 337 332 332 336 338 337 337 337 336 335 336
335 334 335 335 336 335 337 336 335 335 335 336 336 335 336 334 335 333 333 335 335 336 336 335 337 337 338 338 339 339 338 338 338 337 335 334 335 336 337 338 338 335 335 335 333 334 334 336 335 332 331 328 330 329 327 329 331 333 334 333 333 333 332 333 333 333 333 331 331 331 331 331 334 339 331 331 330 332 337 337 337 338 337 336 336
337 335 334 333 334 335 335 335 335 336 336 338 337 336 336 336 333 334 335 335 336 336 335 335 335 336 338 338 338 338 337 336 337 336 335 335 337 338 337 337 335 334 334 334 334 335 333 334 332 333 331 330 328 328 328 329 333 332 331 332 331 331 332 332 332 335 332 331 330 330 331 330 332 331 331 331 331 331 332 335 337 337 337 337 336
336 336 335 334 331 331 334 335 334 334 336 335 336 336 336 335 332 333 333 334 334 334 334 334 334 335 336 337 337 337 336 336 336 336 335 336 337 337 335 334 334 333 333 332 331 331 332 334 334 331 333 331 329 330 330 330 331 330 330 329 331 332 330 330 330 331 331 330 331 333 332 329 330 330 331 330 329 330 330 330 331 332 333 336 335
333 335 333 334 333 334 334 330 330 332 333 334 333 332 331 332 329 330 332 332 332 332 335 336 336 336 337 337 337 336 336 336 336 336 337 336 335 335 333 333 332 332 332 330 330 331 331 333 333 331 330 332 331 331 331 330 330 329 328 328 330 330 331 330 330 329 330 330 331 331 330 329 330 330 332 331 331 331 331 331 333 331 332 335 336
328 329 328 329 333 335 334 330 331 332 331 331 331 332 330 329 330 328 329 331 331 332 334 335 335 335 337 337 338 336 336 337 336 336 337 338 334 335 332 332 332 331 331 331 333 332 332 332 332 331 329 328 328 331 331 330 328 325 327 327 326 328 331 330 329 328 329 329 329 329 328 328 328 330 328 330 330 331 330 330 330 331 331 332 334
326 327 327 329 332 333 334 332 332 331 330 331 331 332 332 332 330 330 331 331 331 331 331 333 334 335 337 337 337 336 335 336 337 337 338 335 334 333 332 331 333 331 331 333 332 332 331 331 331 327 329 328 327 330 330 328 323 323 322 321 323 325 329 328 329 328 328 329 329 328 327 327 327 328 330 329 329 330 331 330 330 331 332 332 331
326 327 328 329 330 334 334 334 333 332 329 330 331 332 332 333 332 332 332 330 333 333 333 334 334 333 335 337 337 337 337 336 338 339 337 336 334 332 331 332 333 332 330 330 330 329 330 331 330 326 327 327 329 330 328 325 322 324 323 321 318 318 322 324 326 328 329 327 330 330 329 327 329 329 330 328 328 329 330 329 330 330 331 331 330
325 327 327 327 329 333 334 333 332 333 333 333 333 331 331 332 334 334 332 331 330 334 334 334 334 333 333 336 336 337 338 337 340 340 337 335 333 332 332 332 332 333 329 329 328 329 329 330 329 328 329 327 327 328 329 327 326 323 316 315 316 317 315 317 321 323 328 327 328 328 329 328 328 329 328 327 327 328 328 330 329 329 330 330 330
326 326 326 327 328 332 334 333 332 332 333 335 331 332 333 332 333 332 333 333 333 332 332 331 332 332 333 332 333 335 337 338 338 338 336 334 333 333 333 333 330 333 331 330 329 329 331 329 330 329 329 326 325 326 329 329 327 326 320 317 314 312 311 318 321 321 326 325 328 329 329 330 328 327 326 326 327 329 330 330 329 330 330 330 330
326 327 328 329 329 333 334 334 333 333 333 334 333 332 330 330 329 328 328 328 327 328 328 328 329 330 331 332 333 334 336 336 337 336 336 335 333 334 333 333 332 332 332 330 330 331 331 330 330 331 329 327 327 326 326 328 328 330 327 321 317 312 316 319 319 315 324 326 326 328 328 327 327 327 327 328 327 328 328 328 328 329 329 329 329
327 328 329 332 334 335 334 335 334 333 334 335 335 333 331 331 329 329 329 328 327 328 330 330 330 331 332 331 332 333 335 335 335 334 334 334 333 333 332 331 333 333 333 332 331 330 331 331 333 331 331 329 328 326 326 325 326 327 330 328 329 326 324 320 314 319 315 321 325 326 326 328 328 327 328 328 328 327 328 328 328 329 328 329 328
330 333 332 332 335 335 335 335 334 333 334 335 334 334 332 331 330 329 328 327 327 327 329 329 330 332 332 332 332 333 334 333 333 333 333 333 332 332 332 331 331 334 334 333 332 330 331 333 332 331 330 330 328 327 325 326 323 323 326 327 327 327 326 322 322 319 317 316 318 325 326 325 326 325 327 327 328 327 326 327 328 328 327 328 328
329 332 332 333 335 336 335 334 332 332 333 335 334 333 333 332 331 329 326 328 329 330 330 331 331 331 330 331 331 332 332 331 331 332 332 333 333 332 331 333 333 333 333 333 332 333 332 331 331 330 329 329 328 327 326 324 325 323 324 322 325 324 325 324 324 321 318 317 317 319 320 325 325 325 326 326 327 327 327 326 328 328 327 327 328
329 331 332 331 332 334 334 333 332 332 332 333 333 332 332 332 330 328 327 327 328 329 330 329 328 327 327 328 328 328 329 329 330 331 331 333 333 332 332 334 332 333 332 333 332 331 332 331 331 330 330 329 327 329 326 325 325 325 326 324 320 319 321 321 320 320 319 320 317 318 320 320 318 321 325 325 325 326 326 326 327 327 326 326 328
328 329 330 330 330 332 332 332 331 331 332 332 332 331 331 331 330 329 328 328 328 328 326 326 326 325 325 325 324 325 326 327 329 330 330 333 332 332 332 332 330 330 331 333 330 331 332 332 332 331 330 329 327 327 327 326 325 324 326 324 322 321 318 316 319 319 319 316 317 318 319 320 319 319 321 323 324 325 326 326 326 326 326 323 322
Wind_Speed
7 13 10 16 17 18 18 17 17 17 18 18 18 18 18 19 20 19 19 20 19 19 19 20 19 19 19 18 18 17 17 16 16 16 15 16 16 15 16 16 16 17 17 17 17 17 16 15 15 16 16 17 17 17 17 16 16 15 16 16 18 19 20 17 17 16 17 18 16 16 16 17 18 18 17 18 18 18 17 17 15 11 8 13 18
12 10 9 13 19 19 18 19 17 19 18 18 18 17 18 18 18 19 19 19 18 19 19 19 19 19 18 18 18 17 16 16 15 15 15 15 15 15 16 17 17 18 18 18 17 17 16 15 15 15 16 16 16 16 16 16 15 16 15 15 16 19 19 18 18 18 18 17 16 18 19 19 18 17 18 17 18 17 17 17 17 9 7 17 18
12 11 9 13 18 19 18 18 18 18 18 18 18 18 18 18 18 18 18 18 18 18 19 19 19 19 18 18 17 17 16 15 15 15 15 14 14 16 17 16 17 17 18 18 18 17 16 15 14 14 15 15 15 14 14 15 14 14 14 14 14 16 17 18 18 19 18 18 18 18 18 19 18 18 18 17 16 17 17 17 17 16 11 19 17
15 10 9 14 18 18 18 18 17 17 17 17 17 18 18 18 18 18 18 17 17 18 18 18 18 18 18 18 17 17 16 16 15 15 15 14 14 15 17 16 17 16 18 18 18 18 16 16 15 14 14 14 13 12 12 12 12 11 13 13 14 13 16 17 17 17 17 17 17 12 6 7 11 17 17 17 17 17 15 16 16 17 19 18 19
15 11 10 10 12 15 18 17 17 17 16 16 16 17 18 17 17 17 17 17 17 17 18 18 18 18 17 17 18 17 16 15 14 15 15 13 13 15 16 16 15 16 16 17 18 18 17 15 14 14 13 12 11 11 11 11 10 10 10 12 12 13 13 13 13 16 16 16 15 9 7 6 7 15 16 17 17 15 15 15 15 16 16 19 19
14 12 10 10 11 13 17 17 17 17 16 16 16 17 17 17 17 17 16 16 16 17 17 17 17 17 17 17 17 17 16 14 13 15 14 11 11 14 15 15 15 15 16 16 16 17 16 16 14 12 12 11 10 9 9 8 8 10 10 10 9 8 9 8 11 9 12 13 14 6 7 7 6 8 17 17 16 15 16 16 16 15 15 17 17
15 11 11 10 9 12 16 17 17 17 16 16 16 16 17 17 17 16 16 17 16 16 17 17 16 16 17 17 16 16 15 14 15 15 12 9 12 14 15 14 14 14 14 14 14 15 15 15 15 14 12 10 8 8 7 7 9 9 9 9 9 8 7 7 5 7 3 3 5 6 6 7 6 5 16 16 16 17 17 16 15 15 15 15 16
12 11 11 9 8 12 16 16 17 16 16 16 16 16 16 16 16 16 16 15 15 15 16 16 16 16 16 16 15 15 15 15 16 14 11 10 14 13 13 13 13 13 13 13 13 13 14 15 15 14 13 10 8 7 6 6 8 9 9 10 10 10 10 9 9 7 7 2 4 6 7 6 5 6 13 16 16 17 17 17 15 15 16 16 15
13 12 11 10 9 15 15 15 16 16 16 16 15 15 15 15 15 16 16 15 14 14 15 15 16 16 15 15 15 15 15 16 15 13 9 9 13 14 11 11 13 13 12 11 11 10 12 13 14 13 12 11 8 6 5 6 8 9 10 10 11 11 11 10 10 7 4 9 6 6 7 7 5 6 13 16 16 16 16 13 13 16 16 15 16
11 12 10 8 10 15 15 16 16 16 15 15 15 15 15 15 15 15 15 14 13 13 13 15 15 15 15 15 15 14 14 15 14 12 10 11 13 13 11 11 12 12 11 11 11 11 11 13 13 12 11 10 8 6 5 7 9 9 9 10 10 10 9 8 10 12 8 9 10 8 8 10 5 6 12 14 17 17 16 16 12 11 12 16 16
16 12 11 11 13 16 15 15 16 16 15 16 16 16 16 15 15 14 14 13 13 12 12 13 15 14 14 14 14 14 14 13 12 12 11 12 13 12 12 10 10 11 11 11 11 12 12 12 12 10 9 7 6 4 5 8 8 8 8 8 8 7 8 12 9 7 9 9 9 8 11 13 4 3 12 14 16 16 15 15 15 15 16 16 16
16 15 12 10 15 15 15 15 15 15 17 18 17 17 16 14 15 15 14 12 13 12 11 11 11 12 13 13 13 13 13 13 12 12 12 12 13 11 11 12 11 10 10 11 13 12 12 11 10 9 7 7 4 4 5 6 7 8 8 8 9 10 10 9 5 8 9 11 11 9 8 6 5 10 16 15 15 14 13 15 15 15 15 15 15
10 14 13 10 10 14 14 15 15 16 16 16 16 17 15 14 15 14 12 11 11 11 11 10 10 9 10 11 12 12 12 11 10 11 12 13 13 13 13 13 11 10 11 12 12 12 11 10 8 8 7 6 6 5 4 5 6 7 8 7 8 9 10 9 5 9 9 10 8 7 5 4 8 14 15 15 15 14 15 15 16 15 16 16 16
12 10 14 12 10 16 16 16 16 18 17 16 15 15 15 14 14 12 11 11 10 10 9 10 9 8 8 9 10 12 10 10 10 12 13 13 13 13 12 12 12 11 12 12 11 11 11 9 8 7 7 7 6 5 4 5 5 6 7 7 8 8 9 6 10 9 10 10 8 8 7 7 6 13 15 15 15 15 15 15 15 16 16 16 16
16 15 15 15 13 13 21 18 18 18 18 17 15 15 15 14 13 12 11 11 10 10 10 9 9 9 9 10 11 11 11 10 10 12 13 13 13 12 12 12 12 12 12 12 11 11 9 9 8 7 7 7 6 5 5 4 4 6 7 8 9 9 10 5 7 8 9 8 7 8 7 7 11 13 15 15 15 15 14 15 16 16 16 15 15
14 16 15 15 15 14 13 19 20 19 18 18 17 15 15 15 13 12 11 10 10 11 10 9 9 9 9 10 12 11 11 9 10 10 12 12 13 13 12 12 12 12 12 12 11 10 9 9 8 7 6 6 5 4 4 4 6 7 8 9 9 9 8 6 8 8 8 8 8 7 6 7 13 14 14 15 15 15 15 14 15 15 16 15 15
11 12 14 16 16 15 15 15 17 23 20 18 17 16 15 15 14 13 12 11 12 12 11 10 9 10 10 11 12 12 11 10 10 11 13 12 12 12 12 12 12 12 12 10 10 9 9 8 8 6 5 5 4 4 4 6 7 8 8 8 10 10 10 9 8 7 7 8 7 7 6 5 12 14 15 15 14 14 15 15 14 15 15 14 14
7 8 10 13 14 14 14 15 17 17 16 19 20 19 18 17 16 15 14 13 13 13 12 11 10 11 11 11 12 12 11 11 11 10 12 11 11 12 12 12 12 11 11 10 9 9 8 8 7 6 5 4 3 3 5 6 7 8 9 10 10 10 8 11 8 9 9 9 7 5 5 10 14 14 15 14 13 14 14 14 14 14 15 15 16
4 5 6 8 10 12 13 14 15 16 17 14 14 17 21 19 17 15 15 14 14 13 13 10 10 11 12 12 12 14 12 12 11 10 11 12 12 11 10 10 11 10 10 9 9 8 8 7 7 5 4 4 3 4 5 6 8 9 11 11 12 11 10 8 8 9 9 7 6 5 6 14 13 13 13 14 13 13 14 13 14 13 14 14 15
5 4 4 4 4 4 3 4 7 11 13 13 15 17 21 22 21 19 17 16 15 14 14 11 11 12 13 11 10 10 10 9 12 8 12 12 11 7 9 10 11 10 9 9 9 8 8 7 6 5 3 3 3 3 5 7 8 9 10 11 11 9 6 7 9 9 7 7 6 5 10 13 13 13 13 13 13 14 13 13 13 13 13 14 13
3 3 3 4 4 4 3 3 3 3 2 4 8 12 16 22 19 20 19 17 14 14 14 13 10 11 11 10 8 5 4 4 6 5 10 7 10 10 11 11 10 10 9 9 9 8 8 7 5 5 2 1 2 3 4 6 6 7 7 8 7 5 6 7 8 8 7 6 5 6 13 12 13 14 14 13 13 13 12 11 11 12 13 13 13
4 4 3 5 5 3 4 3 2 4 5 5 4 4 8 12 12 13 12 13 12 12 10 7 8 5 10 8 5 4 4 4 5 7 5 7 9 11 11 10 9 9 8 8 9 8 7 7 5 5 3 1 0 1 1 2 2 4 8 9 5 3 7 7 8 8 7 5 5 8 13 12 13 13 14 13 13 14 13 13 12 12 12 13 13
5 4 4 5 5 5 4 3 1 2 4 3 4 5 5 4 7 8 9 11 11 10 7 8 5 5 5 4 4 3 4 4 4 6 6 10 9 11 11 10 9 9 8 8 8 8 7 6 5 4 4 3 1 1 1 1 1 6 6 5 6 6 6 8 8 7 6 5 5 11 12 13 12 12 12 13 12 12 13 13 12 12 12 12 13
6 5 5 4 5 5 5 4 2 2 4 5 5 5 5 5 5 6 7 7 8 8 8 8 7 6 5 4 4 4 5 4 8 13 10 6 7 9 11 11 9 8 8 5 6 6 7 7 5 4 3 2 2 3 3 2 1 3 5 2 4 6 7 7 7 6 6 7 6 10 12 12 12 12 12 12 12 12 13 13 13 12 12 12 12
5 5 5 5 5 5 4 4 3 3 5 5 5 5 5 6 5 5 6 6 7 7 7 7 8 8 7 5 4 3 4 5 5 4 5 6 5 4 5 4 3 3 5 3 3 3 3 4 2 3 1 3 3 2 3 2 4 2 2 0 3 4 5 7 7 6 4 4 5 10 10 11 12 12 12 12 12 12 11 12 11 12 12 12 12
5 5 6 5 4 5 4 4 3 3 5 6 6 6 6 6 6 6 6 6 7 7 6 7 5 9 7 6 5 5 5 6 5 5 5 5 5 4 5 5 4 3 3 4 3 3 3 3 4 3 4 2 4 3 5 4 4 2 2 1 2 6 6 7 7 7 5 4 6 13 11 11 11 11 11 12 12 12 12 12 10 11 11 11 12
6 5 5 4 5 5 6 6 5 5 5 5 6 5 5 6 7 6 7 6 5 6 6 4 5 6 6 5 6 5 5 6 6 5 6 5 5 5 5 5 5 5 4 4 3 3 4 3 3 4 3 2 3 3 5 4 4 3 3 2 3 5 7 6 6 6 5 4 6 13 11 11 11 11 11 12 11 11 12 11 11 11 11 11 12
5 6 5 5 5 6 7 7 6 6 6 6 7 6 5 7 7 8 7 7 7 7 8 7 5 7 7 5 6 6 6 7 6 6 6 5 5 5 4 4 4 4 5 5 4 5 4 3 2 2 1 3 3 4 1 4 3 3 4 3 4 5 7 7 6 6 5 5 4 10 11 11 10 11 12 12 12 12 11 12 11 10 11 11 11
6 7 6 6 7 6 8 9 7 7 6 7 7 6 5 5 6 7 7 7 6 6 8 7 6 6 7 6 5 6 6 6 7 6 6 6 5 4 4 3 4 3 4 5 4 4 5 4 2 3 4 4 4 4 6 4 3 2 4 3 4 5 6 7 6 6 5 5 5 8 11 10 8 11 11 11 12 12 11 11 11 11 11 11 10
7 6 7 6 6 7 9 9 6 6 6 6 6 6 5 5 5 6 5 5 5 6 5 5 5 6 6 5 4 4 4 7 7 6 7 5 5 3 2 3 4 3 5 5 4 5 5 4 4 4 6 3 6 5 5 4 2 1 4 4 5 4 5 7 7 6 5 5 5 6 11 8 9 9 10 11 12 11 10 11 11 11 10 10 10
9 8 6 6 6 7 7 6 5 4 3 4 4 4 4 5 5 5 5 6 5 4 2 4 5 6 6 5 4 3 4 4 5 6 6 4 5 7 5 5 4 5 5 6 5 5 5 6 6 4 3 7 5 3 4 3 3 5 4 5 5 4 5 6 7 7 6 6 5 4 6 11 9 7 7 8 10 11 11 10 10 10 10 11 10
9 8 7 6 7 7 7 6 5 4 2 2 6 5 4 4 5 5 5 6 5 4 3 4 5 5 5 5 4 3 4 4 6 6 6 6 5 5 3 3 3 4 3 5 2 4 5 3 3 5 6 6 5 3 4 4 5 5 4 4 4 5 5 5 7 7 6 5 5 4 4 4 7 7 9 9 10 11 11 11 10 10 10 10 10
6 9 8 8 8 6 7 5 8 7 3 1 2 5 4 3 5 6 5 4 5 5 5 4 5 5 5 5 4 4 4 5 5 6 7 7 6 6 4 3 1 4 7 1 2 1 3 3 4 6 8 5 6 4 4 3 5 5 4 3 4 5 4 6 6 6 6 5 5 5 4 3 3 7 9 9 8 10 10 10 10 10 10 9 10
6 5 6 7 6 4 4 5 8 8 4 4 2 3 4 4 4 4 5 5 5 5 5 5 5 5 5 5 5 4 4 5 6 5 6 7 7 5 5 2 3 2 5 7 2 2 2 1 1 10 3 2 5 4 5 5 4 4 3 4 4 4 5 6 5 5 5 5 5 4 4 3 3 3 4 9 7 7 8 9 10 11 10 10 10
6 6 7 6 6 6 5 5 6 6 5 5 3 3 3 3 4 4 3 4 5 5 5 5 5 5 5 5 6 5 5 5 4 5 5 8 7 5 4 4 3 1 4 5 1 0 1 1 1 11 6 2 5 4 2 3 6 5 4 4 5 4 4 5 5 5 5 5 5 4 4 3 3 3 4 3 6 7 7 8 10 11 11 11 10
8 7 6 5 6 6 5 6 6 6 5 5 3 3 4 4 3 6 2 1 4 5 4 5 5 5 5 5 5 5 5 6 4 4 6 7 7 5 4 4 3 3 1 1 3 2 1 1 0 10 5 4 5 5 1 4 5 5 5 5 4 5 4 5 5 5 4 4 4 4 4 4 3 4 4 3 3 3 7 7 7 8 10 11 12
7 8 7 6 5 5 6 7 8 7 5 4 3 3 1 2 4 7 7 3 2 3 3 3 4 5 5 5 5 6 5 6 6 5 7 7 7 6 5 5 4 3 4 4 4 4 3 3 5 10 6 5 5 5 3 5 5 4 4 5 5 5 5 4 5 5 4 4 4 3 4 3 3 5 3 3 2 2 5 8 6 6 7 9 11
7 7 8 7 5 4 4 3 4 5 4 5 5 4 2 2 7 1 2 4 2 3 4 3 3 4 4 5 6 6 6 5 5 6 6 6 5 5 5 5 4 4 5 5 5 3 2 4 5 6 6 6 6 6 4 4 6 4 2 4 3 4 4 4 4 4 4 4 4 3 4 3 3 4 4 3 3 3 2 4 6 6 5 5 7
7 8 7 5 5 2 1 4 3 2 4 6 5 5 3 6 6 1 1 2 2 2 3 4 3 3 3 5 5 5 5 5 5 6 6 5 5 5 5 4 4 5 6 6 5 3 2 3 4 3 2 3 7 7 7 7 7 3 3 3 3 4 4 3 4 2 4 4 4 4 3 3 3 3 4 3 3 2 2 3 3 3 4 6 6
7 8 10 5 3 4 4 6 6 7 7 6 6 6 4 5 7 2 2 3 3 2 2 4 4 3 4 4 4 4 5 5 5 6 6 5 5 5 5 4 4 5 6 6 5 3 3 2 6 2 4 2 1 4 7 8 8 5 3 2 3 4 4 3 4 3 3 3 3 3 3 2 4 3 3 3 4 2 2 2 2 3 3 4 5
6 10 10 8 7 8 6 8 7 8 7 6 6 7 8 7 9 10 6 6 6 4 3 4 4 3 4 4 4 4 5 5 5 5 6 6 5 5 5 4 4 5 5 5 4 5 3 2 5 3 6 8 1 3 5 8 9 7 5 4 5 3 3 3 4 3 3 3 2 3 2 3 3 4 2 3 3 2 1 2 3 3 4 4 3
8 11 13 12 6 5 7 7 6 6 5 6 6 4 7 8 7 7 5 6 6 7 6 5 5 6 5 5 5 5 5 5 6 5 5 6 6 5 5 5 5 5 5 5 5 4 3 2 4 1 5 9 7 6 7 9 3 7 7 4 2 2 4 5 4 2 2 2 2 2 2 3 3 3 2 3 3 2 2 1 2 4 4 4 3
12 11 11 9 8 8 8 8 8 7 6 6 6 5 4 3 2 3 4 2 1 3 3 5 5 5 4 6 6 7 7 6 6 6 6 6 6 6 5 5 5 5 5 5 5 5 3 3 6 5 3 3 6 6 8 3 6 5 5 6 3 3 2 3 0 0 0 0 2 2 2 3 3 2 3 3 3 2 2 2 2 3 4 4 4
6 8 12 14 10 10 9 8 8 7 6 6 4 3 2 1 2 4 2 1 1 5 4 4 4 5 5 6 5 5 7 7 6 6 6 6 6 6 5 5 5 5 5 6 5 5 4 2 3 7 5 5 4 4 3 5 7 9 4 2 4 4 4 1 2 2 1 2 2 1 3 2 2 2 3 4 3 3 2 2 3 3 4 5 4
10 12 14 13 10 12 12 10 8 7 6 6 9 7 7 5 3 5 3 3 3 5 5 5 6 6 6 5 5 5 5 6 6 6 6 6 6 5 5 5 5 5 5 5 6 5 5 5 6 5 5 6 5 2 1 5 7 4 6 5 3 1 2 3 4 2 1 3 1 2 1 4 4 3 3 2 2 4 4 3 3 3 3 4 4
12 12 10 13 12 11 10 10 8 7 7 7 11 9 9 8 7 8 9 8 8 8 9 9 8 8 8 5 4 3 3 3 5 6 6 6 6 5 5 5 5 5 5 5 4 5 5 7 8 5 5 5 6 5 3 1 4 4 4 3 4 4 7 5 2 4 1 1 2 1 2 3 3 2 2 3 3 3 2 3 3 4 3 3 4
12 11 7 7 11 11 11 10 9 8 7 8 11 10 9 8 9 9 8 8 8 6 5 5 7 7 5 6 5 4 3 4 5 5 5 5 5 5 4 3 4 4 4 4 4 5 5 4 5 5 5 5 6 6 6 3 1 1 2 2 2 2 9 9 2 4 4 1 1 2 3 3 3 3 3 3 3 2 2 2 3 3 3 3 4
12 10 9 8 10 12 12 12 9 8 7 9 10 9 9 8 8 6 6 6 7 7 6 6 3 4 5 5 4 4 4 4 5 5 5 5 4 4 4 3 3 2 4 5 5 4 3 3 5 5 4 4 6 7 6 5 5 3 2 3 4 6 7 3 6 6 6 6 3 1 3 3 2 2 2 4 3 3 3 3 3 3 3 3 4
9 10 11 10 8 10 12 11 10 8 8 10 9 8 8 9 8 7 4 4 4 5 5 4 4 3 5 4 4 3 3 3 4 4 4 4 3 3 3 2 4 2 1 5 3 5 6 6 5 5 4 4 4 5 6 5 4 4 4 3 5 5 5 5 5 4 4 5 3 4 3 0 1 2 1 1 3 4 3 3 4 4 4 3 4
8 10 10 7 6 9 11 12 10 8 7 10 9 8 7 8 7 7 8 6 3 3 5 5 4 3 5 5 4 4 4 4 3 4 4 4 4 4 3 2 3 4 2 3 4 5 5 5 4 4 4 4 3 5 5 5 5 4 4 5 4 3 4 3 3 5 3 3 7 6 6 6 5 2 2 3 2 4 4 4 4 4 4 4 4
7 9 10 9 5 7 10 12 11 9 7 9 10 9 8 8 8 8 8 8 7 6 5 4 4 3 4 4 4 4 2 2 3 4 5 5 6 5 4 4 3 3 2 5 5 5 5 5 4 4 4 5 4 3 4 4 5 4 4 6 6 7 6 4 6 5 5 3 5 6 5 4 6 6 3 3 4 5 4 4 5 4 3 4 4
Wind_Direction
110 124 130 131 127 124 124 121 120 119 118 117 115 115 116 116 117 117 116 114 112 110 107 105 105 104 102 102 101 99 97 97 97 96 95 94 93 91 89 91 87 83 81 84 86 85 86 89 91 87 84 83 78 77 75 76 79 83 85 85 92 91 94 93 90 89 91 87 85 85 83 80 77 76 75 80 84 80 77 73 69 64 59 66 69
130 120 124 128 125 123 123 123 119 120 118 117 116 117 120 118 118 120 117 114 113 112 110 108 108 108 107 105 105 103 103 102 101 98 97 95 95 98 94 89 89 88 87 85 82 82 85 88 88 87 83 80 77 78 74 76 82 86 90 91 93 95 94 96 92 87 80 78 77 76 75 75 74 73 72 73 78 77 76 75 76 75 68 70 68
106 112 119 123 122 120 119 119 120 118 116 116 118 121 121 120 119 120 118 115 114 113 112 112 111 111 111 110 108 108 107 106 103 101 98 99 98 95 97 93 92 88 86 85 85 83 83 86 88 94 89 83 78 76 78 80 81 85 92 94 98 101 101 100 101 98 94 86 78 73 73 75 75 75 75 74 76 78 78 77 76 74 71 72 72
108 105 111 117 115 114 117 119 119 119 118 117 121 123 123 121 120 120 118 115 115 114 114 114 114 113 114 113 112 111 110 109 107 105 104 102 105 102 98 98 92 88 85 83 83 83 81 83 87 90 90 85 68 65 65 72 75 81 90 94 94 93 101 102 102 99 95 95 92 82 68 69 77 80 82 83 81 79 77 77 77 77 75 70 69
103 104 105 108 110 112 116 118 119 119 119 120 123 125 124 122 119 120 119 117 116 115 115 115 115 115 115 116 115 114 113 111 110 108 107 109 107 103 100 99 96 91 87 84 82 81 84 82 85 84 84 83 70 62 63 62 62 55 61 83 93 97 100 101 100 96 99 94 90 88 85 75 80 86 87 86 85 85 86 83 80 80 75 73 69
99 101 100 102 106 112 116 118 118 120 122 123 126 127 126 125 124 123 121 118 117 115 116 116 116 116 117 118 117 117 115 113 111 110 110 111 106 103 103 101 101 92 86 83 82 79 80 84 82 83 82 79 72 61 59 63 58 52 50 52 64 71 73 78 78 70 95 87 88 83 82 79 77 89 92 90 87 84 83 81 79 77 73 72 71
96 96 99 99 103 113 117 119 120 123 125 126 129 131 130 128 125 123 121 119 116 117 118 118 118 119 119 120 120 119 118 115 109 111 113 112 101 100 102 101 97 95 89 86 82 80 79 81 84 83 81 78 72 60 52 48 50 48 45 45 46 46 39 27 28 22 42 64 90 82 80 76 75 80 93 92 87 84 86 86 84 83 81 78 75
89 94 96 100 105 115 119 122 124 126 129 130 133 133 130 127 123 120 120 117 117 117 118 119 119 121 122 122 121 121 119 115 115 114 113 104 105 106 106 109 100 92 89 87 84 80 79 81 80 80 79 75 67 56 41 36 40 41 37 33 31 30 18 18 2 0 0 298 95 93 86 76 72 76 88 92 91 87 83 81 81 83 83 82 80
83 89 99 105 112 118 123 126 128 129 130 131 131 128 125 120 119 121 120 117 117 115 117 120 123 122 123 125 123 121 120 119 119 116 102 104 104 106 108 101 99 95 91 88 83 80 80 83 80 78 78 76 67 51 25 21 36 33 32 29 27 25 15 5 336 335 19 69 81 87 85 80 71 83 89 90 88 86 81 75 77 84 85 83 82
99 105 113 122 127 127 129 131 131 131 129 127 127 123 120 120 121 122 124 121 119 119 121 125 125 125 125 127 126 124 122 121 121 118 112 103 105 110 107 107 107 105 101 95 90 86 83 77 75 73 69 67 67 44 8 19 31 30 30 31 28 24 13 360 24 74 74 76 75 76 82 83 68 80 88 88 90 90 89 93 95 91 88 85 84
126 127 127 128 130 132 131 131 131 128 125 124 124 123 122 124 125 128 127 123 123 125 125 128 127 125 125 127 126 124 121 121 121 120 112 106 108 111 112 109 103 99 96 97 93 86 77 70 69 69 73 73 69 45 12 21 23 24 27 28 26 20 18 15 28 85 86 81 77 68 69 65 61 93 92 89 88 86 88 89 88 86 85 85 84
129 128 127 124 127 124 124 124 124 123 124 124 125 125 126 128 132 133 131 129 129 130 129 127 128 124 127 128 127 124 124 125 124 121 109 107 112 114 114 111 101 96 98 91 83 77 72 69 69 75 83 88 84 60 29 18 18 19 21 20 20 15 13 14 60 93 86 82 77 72 71 76 69 81 86 86 86 93 94 88 87 85 89 90 89
115 117 113 111 111 117 117 119 119 119 122 125 128 129 131 133 133 134 132 132 132 132 131 126 126 124 127 129 129 130 131 129 128 123 111 111 110 109 110 109 104 102 97 90 82 75 73 70 71 78 85 94 92 73 47 27 18 13 13 15 17 17 5 13 73 90 88 86 88 85 78 62 72 84 89 89 90 86 86 90 91 91 87 86 88
114 111 117 121 126 123 122 123 125 127 127 130 133 134 136 136 133 134 136 136 133 130 126 128 128 126 124 129 134 136 135 133 131 128 118 116 113 114 111 110 108 106 98 90 86 79 72 68 72 79 88 92 92 89 67 39 21 6 9 3 8 14 13 28 91 90 86 85 84 78 68 75 83 82 82 87 92 91 87 87 90 92 92 90 85
127 134 135 133 132 130 130 131 131 130 130 133 137 138 137 136 135 139 139 137 136 130 130 131 130 129 129 133 137 135 139 139 135 132 126 120 118 117 114 110 109 105 99 93 85 84 79 79 80 81 81 86 84 80 56 34 14 8 359 2 5 9 18 36 84 88 88 84 78 76 70 77 77 89 92 90 89 93 90 86 87 88 89 85 88
134 140 140 136 138 137 136 136 134 135 134 136 137 137 138 137 137 139 140 139 134 132 134 134 134 132 138 140 144 137 141 136 133 129 125 122 124 119 115 115 115 109 100 93 91 90 89 87 91 92 89 87 87 67 43 21 8 3 4 1 2 360 7 69 95 90 86 84 82 78 83 83 87 89 91 90 90 88 88 90 85 88 87 88 84
134 139 142 142 144 146 146 145 143 139 137 137 138 141 140 140 143 145 145 138 138 140 138 140 137 138 131 139 150 137 138 134 129 125 126 124 127 123 121 121 118 110 101 96 100 96 95 98 102 99 94 87 80 54 29 13 9 1 355 2 4 0 17 101 107 106 99 91 86 76 70 89 91 90 87 86 86 88 89 90 89 88 91 87 87
129 140 149 147 148 148 147 145 144 144 147 145 146 149 149 150 151 152 146 142 143 143 139 137 138 137 139 147 149 142 138 132 129 126 123 120 120 127 127 127 119 111 108 110 105 101 99 98 100 104 95 84 67 37 22 16 4 360 357 360 6 15 27 93 93 92 91 93 89 87 87 90 82 77 83 86 88 87 85 86 88 85 87 92 87
127 136 148 152 153 151 151 150 150 151 152 153 154 153 153 153 151 147 147 145 146 144 142 134 134 141 147 150 152 152 138 132 130 126 119 120 127 126 125 123 117 116 115 116 108 106 104 103 104 102 105 93 54 36 11 9 4 2 359 2 7 16 74 85 90 93 94 93 96 99 99 99 103 103 99 95 95 96 92 87 88 90 84 79 85
128 136 143 151 128 102 91 124 146 153 157 159 157 155 155 154 152 149 151 150 147 149 145 138 137 142 149 145 152 154 141 135 135 125 123 124 122 120 123 122 124 123 122 121 116 112 106 102 103 107 110 102 77 30 16 4 7 4 1 3 5 17 87 96 96 92 93 95 94 89 100 103 104 101 96 94 96 90 87 90 95 92 90 88 77
75 72 91 106 82 92 77 72 132 129 114 144 153 152 152 151 151 150 148 148 148 148 145 143 137 146 147 144 139 135 123 127 122 126 131 122 126 132 133 133 128 128 131 125 123 117 114 109 114 115 112 83 70 58 23 6 359 354 354 359 19 40 84 101 98 98 93 96 104 109 109 109 103 101 103 105 99 97 95 94 92 93 95 94 95
118 102 88 103 107 91 74 57 93 134 142 143 141 135 141 144 145 146 144 145 144 144 146 137 139 131 144 149 137 139 128 124 132 136 122 137 138 139 139 136 131 133 135 132 123 125 121 122 116 124 120 103 40 47 33 337 336 345 9 8 13 49 111 103 103 104 108 112 111 119 113 102 104 106 105 103 102 100 102 101 94 87 84 85 86
130 124 115 127 131 126 111 117 110 121 130 110 110 110 122 121 133 135 140 142 145 141 133 135 121 133 138 142 147 138 138 150 143 146 140 143 141 143 140 142 144 139 136 133 131 130 131 126 128 133 147 172 232 284 200 225 315 36 39 22 39 66 95 101 102 109 117 118 116 115 113 111 106 99 99 99 100 103 102 97 91 91 90 87 85
156 153 150 140 137 135 138 141 135 95 113 105 110 119 121 121 127 134 138 136 132 130 132 135 139 141 144 155 168 156 153 160 166 158 151 134 141 145 145 148 151 143 138 133 137 139 136 134 151 150 165 181 210 254 228 210 74 73 64 32 76 85 109 105 109 115 119 120 115 114 106 113 115 113 112 110 105 104 99 99 102 103 103 98 90
157 140 140 158 148 140 133 135 118 106 120 121 123 120 120 124 129 136 138 135 132 135 137 135 145 147 152 172 159 154 150 144 146 129 108 130 133 144 144 133 123 133 140 127 149 149 135 149 155 174 180 205 216 242 227 197 97 119 131 2 35 48 79 105 111 106 98 108 116 109 115 113 119 120 115 109 105 97 99 101 100 98 97 100 100
141 151 160 152 150 134 121 114 105 121 135 130 124 132 130 134 137 143 139 147 141 135 133 142 139 152 153 162 130 132 128 131 130 125 126 131 140 143 143 139 154 171 165 155 177 157 186 182 175 179 213 208 224 225 214 169 154 127 131 84 114 93 88 98 106 110 110 108 105 101 106 114 113 111 114 112 109 110 106 103 108 104 97 96 99
160 163 148 148 132 131 135 136 139 145 135 121 123 123 135 148 148 148 146 157 140 129 134 141 163 151 144 139 132 132 125 127 130 132 139 144 148 157 163 168 172 176 188 171 182 182 189 201 198 192 199 224 249 250 191 150 150 140 141 119 63 96 96 104 106 109 114 108 103 106 109 117 117 121 117 111 111 111 109 113 111 112 112 104 100
146 148 152 142 142 144 145 150 164 152 141 134 135 138 152 151 143 141 156 158 145 154 154 170 165 139 136 143 139 135 142 133 142 145 155 158 168 171 172 170 174 184 193 182 186 188 197 199 211 187 201 256 263 249 66 89 134 164 120 114 111 91 101 112 110 116 113 100 100 112 114 121 128 121 117 119 119 117 115 112 116 114 108 107 103
148 154 144 140 150 153 159 169 165 156 146 144 145 152 142 122 132 149 159 156 154 159 160 167 148 129 129 141 138 146 146 143 155 162 159 171 165 163 177 173 188 189 186 213 186 185 198 202 191 194 203 224 237 35 99 114 130 166 116 132 94 89 100 113 116 113 105 96 95 115 119 123 120 117 123 121 120 119 120 120 117 113 112 111 104
152 138 144 151 153 162 173 177 159 155 142 142 151 144 127 115 145 157 161 137 156 164 161 144 137 118 122 130 112 107 129 154 165 160 157 160 174 190 162 188 195 197 188 208 217 179 192 204 202 181 190 182 71 112 97 133 133 64 67 94 80 83 94 112 113 108 103 97 103 116 125 119 116 125 124 125 123 121 120 115 111 113 115 113 112
141 146 152 161 155 162 181 157 123 128 113 128 112 115 125 128 153 153 155 150 146 150 151 119 108 115 119 117 93 100 117 111 130 155 142 118 89 63 53 321 238 180 199 201 206 188 186 186 177 155 78 77 112 108 119 102 84 75 80 95 105 91 88 103 108 111 113 113 112 123 129 129 124 124 132 122 114 118 119 121 125 122 118 118 117
142 159 164 149 160 169 166 153 125 79 58 119 145 144 141 144 155 146 162 145 140 143 134 110 112 113 113 110 105 99 109 108 106 103 119 112 114 109 103 85 18 332 199 191 178 172 166 157 117 101 96 104 98 86 80 98 93 76 79 101 111 95 93 105 114 117 122 125 124 114 112 116 126 121 109 107 120 124 129 130 127 122 119 121 120
158 162 154 154 165 159 154 133 95 115 155 257 247 127 116 150 167 148 143 132 122 127 125 119 115 115 110 115 119 108 96 102 106 121 119 110 105 103 101 114 132 86 337 356 95 54 78 88 90 88 76 79 91 73 69 74 89 87 89 110 105 102 97 104 114 120 127 123 111 107 104 103 109 118 120 126 129 133 132 131 126 122 119 121 124
133 103 125 148 149 141 141 122 135 149 162 131 227 118 131 156 172 133 115 125 124 125 129 125 127 125 124 128 122 111 99 99 111 115 123 110 104 116 124 91 69 40 94 297 47 63 79 82 112 82 70 138 97 117 109 94 80 80 90 81 93 102 103 100 108 118 110 100 99 97 107 106 113 123 129 131 125 124 129 128 127 123 125 129 130
103 119 144 147 139 147 145 130 155 153 152 156 168 144 136 171 157 90 87 96 123 128 126 123 130 130 130 131 129 123 119 111 115 138 133 114 117 130 144 140 124 203 145 231 124 48 117 219 205 101 189 98 117 99 87 93 99 101 92 95 104 107 95 97 106 107 102 106 100 103 98 106 117 119 114 121 135 136 136 138 131 128 135 137 133
123 130 122 121 135 146 152 140 152 141 149 147 150 164 176 170 119 148 151 167 123 123 125 130 131 130 137 130 130 135 136 129 130 138 129 116 126 136 151 139 159 195 197 29 52 15 324 357 171 119 151 146 124 101 101 101 99 98 100 106 104 111 108 106 112 107 106 102 102 99 102 107 107 137 135 125 126 139 145 139 130 139 138 141 136
126 132 134 116 142 155 158 150 152 147 153 147 129 164 327 65 100 146 191 111 81 98 97 119 125 127 135 132 138 139 142 141 142 136 126 127 135 137 151 154 160 165 96 73 77 51 19 351 35 110 153 155 134 125 118 91 93 78 105 120 122 122 125 127 110 112 117 111 118 113 109 116 123 119 103 126 124 135 150 146 144 123 140 142 142
107 132 140 147 147 152 153 153 144 121 128 139 150 153 75 30 92 223 39 56 92 111 118 116 130 133 134 140 144 142 139 132 124 117 113 131 131 130 131 138 147 118 98 89 80 91 63 43 28 74 150 143 146 133 128 105 92 97 61 71 63 102 119 108 91 97 115 124 125 130 138 117 111 108 96 81 129 133 118 134 117 108 110 141 144
147 137 127 115 69 48 139 156 112 115 137 152 152 103 70 85 79 60 51 112 106 170 148 125 128 142 144 144 143 138 129 123 117 116 120 130 121 125 128 130 120 115 100 92 83 94 68 86 72 62 322 143 146 150 138 113 104 83 42 25 51 65 69 66 72 87 112 130 138 141 123 127 115 105 89 95 85 90 117 119 128 126 130 132 152
129 91 77 60 115 165 163 121 143 186 186 152 134 112 91 86 110 335 272 144 176 158 178 148 138 146 156 144 146 133 122 125 124 131 134 136 127 131 126 115 102 102 100 104 104 111 104 95 106 92 202 95 43 110 122 110 109 111 103 70 63 59 85 93 89 95 99 102 119 123 127 115 107 104 97 97 92 79 103 152 143 141 133 135 138
95 96 114 143 212 179 164 164 185 193 170 146 141 143 145 144 152 176 195 196 172 168 161 144 137 150 158 152 141 135 130 136 143 148 140 136 137 129 124 107 110 103 107 111 114 113 109 120 100 153 190 127 122 144 109 105 121 99 56 55 49 25 74 86 92 74 72 91 102 99 97 100 104 114 113 92 85 76 104 79 113 127 130 113 117
155 152 160 165 178 198 179 174 188 193 193 150 143 158 157 180 172 172 183 201 162 159 154 154 166 175 161 157 149 148 156 156 156 155 142 142 142 132 133 137 124 111 115 123 123 126 120 133 112 96 214 140 158 171 149 138 125 136 137 126 84 44 55 60 48 51 52 60 93 108 110 118 110 132 129 112 114 110 119 122 105 115 138 128 120
168 181 152 149 182 194 192 171 186 191 188 160 164 170 151 160 149 159 173 195 281 72 119 174 176 155 175 177 164 166 164 165 159 153 147 148 145 137 142 143 130 131 128 120 130 147 140 170 128 198 173 117 118 158 184 158 131 129 124 115 147 99 16 52 57 252 125 124 137 135 122 116 135 153 140 136 136 139 153 163 125 119 128 137 139
184 211 153 170 184 189 185 182 187 183 170 168 139 69 60 256 138 105 92 300 165 118 134 180 153 150 185 183 174 175 169 162 154 150 147 143 145 147 144 142 141 149 151 137 144 152 165 137 115 231 140 129 137 161 180 135 131 142 143 174 172 123 115 160 115 31 47 106 106 132 139 141 134 132 129 140 160 173 157 145 146 134 123 129 125
192 224 169 174 180 184 180 179 180 182 166 160 126 145 146 169 110 109 126 116 108 132 150 168 172 177 185 190 181 185 173 151 148 148 142 146 143 145 145 146 150 154 146 137 153 184 169 147 194 201 141 148 149 139 122 139 153 163 144 121 87 100 198 156 124 75 43 49 124 196 151 129 143 159 154 170 164 154 143 124 123 117 122 125 127
186 225 200 174 173 177 168 164 167 173 171 155 140 152 160 164 156 153 159 168 161 164 175 173 171 179 193 174 167 175 172 142 143 139 137 138 141 147 149 151 149 155 156 157 173 181 155 181 210 148 143 156 141 128 125 78 162 144 154 168 165 169 153 169 137 134 57 122 199 207 131 153 155 156 170 144 138 141 140 132 127 121 116 112 122
199 198 231 204 177 172 167 166 166 164 158 151 150 153 158 161 168 170 168 171 172 185 177 182 176 177 167 161 167 173 166 143 134 138 137 136 140 146 150 149 155 156 167 166 178 170 179 181 138 130 149 147 132 138 155 169 80 93 133 117 108 116 144 150 160 117 130 121 99 133 167 181 154 151 161 153 145 143 148 123 127 121 117 112 114
189 181 193 218 193 170 167 167 161 157 152 150 151 156 155 163 171 173 174 179 184 173 174 186 187 159 150 150 152 171 158 151 138 134 132 133 138 145 151 144 140 168 169 178 178 173 138 116 129 138 137 143 146 145 161 168 160 193 109 110 85 86 133 96 143 149 135 142 128 44 45 30 101 183 184 159 158 156 137 123 130 129 119 119 122
193 182 185 201 199 174 165 159 154 154 151 152 151 158 161 168 170 154 157 217 190 162 161 167 174 150 135 131 150 162 136 142 148 143 136 135 133 141 128 135 153 180 213 168 145 129 134 127 125 123 133 130 137 145 141 174 161 166 125 93 86 88 95 111 143 127 140 130 128 149 136 113 55 27 333 278 169 151 140 133 132 129 137 125 113
192 196 187 180 189 177 167 158 156 161 155 153 151 156 167 163 167 161 154 166 164 138 146 155 165 156 142 142 141 144 147 143 142 146 140 148 141 136 134 142 145 108 259 132 122 116 121 130 137 137 137 131 146 144 155 172 168 159 145 146 119 102 86 83 109 122 92 142 151 159 163 157 138 183 222 206 169 125 115 109 104 111 109 108 99
197 199 192 180 180 182 170 161 157 153 158 154 154 162 169 170 168 165 154 156 159 148 144 147 150 148 150 132 122 116 105 143 145 155 162 158 155 143 153 152 157 147 156 126 138 135 130 134 139 133 140 147 165 155 141 156 158 149 147 150 155 159 161 158 171 157 150 136 120 145 163 176 147 146 210 159 118 115 116 108 118 113 105 88 91